Time,B instrument,Bx,By,Bz,sigma B,Ion instrument,Status,Tp_par,Tp_perp,carrot,r_sun,clat,clong,earth_he_angle,n_p,vp_x,vp_y,vp_z,vth_p_par,vth_p_perp
1976-05-17 01:09:05,-1,nan,nan,nan,nan,1,3,nan,nan,1641,0.80566871,4.150178,305.81976,164.37834,nan,312.403,-19.6342,-3.12681,nan,nan
1976-05-17 01:10:26,1,-3.28,11.56,-2.14,0.26533,1,1,17901.7,22139.4,1641,0.8056742,4.1501036,305.80612,164.37839,15.5421,317.12,-15.4026,-4.101,17.1912,19.1179
1976-05-17 01:11:47,1,-3.73333,11.6833,-1.83333,0.243242,1,1,18385.5,20519.1,1641,0.80567968,4.1500292,305.79446,164.37845,15.5308,317.037,-22.0567,-2.97476,17.4219,18.405
1976-05-17 01:13:08,1,-3.3,11.1,-3.36667,0.292499,1,1,17437.2,20751.0,1641,0.80569071,4.1498795,305.78287,164.37856,16.1084,317.001,-15.6684,1.95348,16.9666,18.5088
1976-05-17 01:14:30,1,-3.28333,11.3333,-2.43333,0.330404,1,1,21053.9,20726.6,1641,0.80569619,4.1498051,305.76926,164.37862,16.0835,315.978,-19.6682,-3.58299,18.6434,18.4979
1976-05-17 01:15:51,1,-3.51667,11.3,-3.1,0.338707,1,1,18245.4,21649.7,1641,0.80570167,4.1497307,305.75757,164.37866,16.4888,316.871,-15.2761,0.685784,17.3554,18.9053
1976-05-17 01:17:12,1,-3.6,11.4,-2.7,4.44089e-16,1,1,20648.1,20644.9,1641,0.80571264,4.149581,305.74597,164.37877,16.5978,317.439,-20.69,-1.70925,18.4628,18.4614
1976-05-17 01:18:33,1,-3.46667,11.4,-2.7,0.228522,1,1,20372.0,21426.4,1641,0.80571818,4.1495066,305.73236,164.37883,16.2323,317.064,-15.9283,-1.26069,18.339,18.8075
1976-05-17 01:19:54,1,-3.55,11.4333,-3.03333,0.200693,1,1,19774.0,20743.4,1641,0.80572367,4.1494322,305.7207,164.37889,15.8686,316.5,-20.3294,-1.10021,18.0678,18.5054
1976-05-17 01:21:15,1,-3.93333,11.2333,-3.01667,0.170783,1,1,17655.4,20936.8,1641,0.80573463,4.1492825,305.70908,164.379,16.2605,317.862,-15.9145,-0.421971,17.0725,18.5914
1976-05-17 01:22:36,1,-3.8,11.3,-2.91667,0.273354,1,1,18972.1,19705.7,1641,0.80574012,4.1492081,305.69547,164.37904,15.5233,317.685,-20.9334,-1.22931,17.6977,18.0366
1976-05-17 01:23:57,1,-3.88,11.36,-2.98,0.318748,1,1,17989.3,21390.5,1641,0.8057456,4.1491337,305.68381,164.3791,15.3193,317.465,-15.691,0.795904,17.2332,18.7918
1976-05-17 01:25:18,1,-4.0,11.3667,-2.65,0.273354,1,1,17493.1,19847.6,1641,0.80575663,4.148984,305.67218,164.37921,15.5168,317.021,-21.7032,-1.55907,16.9938,18.1014
1976-05-17 01:26:39,1,-3.88,11.36,-2.82,0.342929,1,1,16987.9,20674.1,1641,0.80576211,4.1489096,305.65857,164.37927,15.2081,319.604,-16.6113,-1.42893,16.7466,18.4745
1976-05-17 01:28:00,1,-2.53333,11.4333,-3.3,0.290593,1,1,19174.8,19855.2,1641,0.80577308,4.1487608,305.64697,164.37938,15.4815,315.515,-20.6032,-0.930942,17.7919,18.1049
1976-05-17 01:29:21,1,-2.4,11.5,-3.1,0.0,1,1,18118.1,21326.7,1641,0.80577856,4.1486855,305.63333,164.37943,15.3747,315.375,-16.6611,-0.693553,17.2948,18.7638
1976-05-17 01:30:42,1,-2.24,11.58,-3.1,0.219089,1,1,17609.5,20427.6,1641,0.80578411,4.1486111,305.62167,164.37949,16.4512,313.517,-21.1472,-0.282266,17.0503,18.364
1976-05-17 01:32:03,-1,nan,nan,nan,nan,1,3,nan,nan,1641,0.80579507,4.1484623,305.61008,164.37959,nan,313.088,-15.8361,-0.605548,nan,nan
1976-05-17 01:33:24,-1,nan,nan,nan,nan,1,3,nan,nan,1641,0.80580056,4.148387,305.59647,164.37965,nan,314.313,-20.9765,-0.93897,nan,nan
1976-05-17 01:34:45,-1,nan,nan,nan,nan,1,3,nan,nan,1641,0.80580604,4.1483126,305.58478,164.3797,nan,315.682,-15.902,-2.51466,nan,nan
1976-05-17 01:36:06,-1,nan,nan,nan,nan,1,3,nan,nan,1641,0.80581707,4.1481638,305.57318,164.37982,nan,314.033,-20.8299,-2.78481,nan,nan
1976-05-17 01:37:27,-1,nan,nan,nan,nan,1,3,nan,nan,1641,0.80582255,4.1480885,305.55957,164.37987,nan,313.308,-17.0249,-0.980373,nan,nan
1976-05-17 01:38:48,-1,nan,nan,nan,nan,1,3,nan,nan,1641,0.80582803,4.1480141,305.54791,164.37993,nan,315.264,-20.5213,-2.28393,nan,nan
1976-05-17 01:40:09,-1,nan,nan,nan,nan,1,3,nan,nan,1641,0.805839,4.1478653,305.53629,164.38004,nan,313.131,-17.573,-1.21631,nan,nan
1976-05-17 01:41:30,-1,nan,nan,nan,nan,1,3,nan,nan,1641,0.80584449,4.14779,305.52267,164.38008,nan,312.842,-19.7749,0.398515,nan,nan
1976-05-17 01:42:51,1,-1.9,11.3,-3.5,1.79018e-15,1,1,20490.3,20445.5,1641,0.80585003,4.1477156,305.51102,164.38014,14.8527,311.66,-15.3452,-0.351665,18.3922,18.372
1976-05-17 01:44:12,1,-1.91667,11.3667,-3.16667,0.214087,1,1,19920.3,22882.9,1641,0.805861,4.1475668,305.49939,164.38025,15.6198,311.087,-20.3401,-1.48127,18.1345,19.4363
1976-05-17 01:45:33,1,-1.76,11.46,-3.06,0.295296,1,1,17886.1,20184.7,1641,0.80586648,4.1474915,305.48578,164.38031,14.9636,310.801,-15.623,-1.9875,17.1837,18.2545
1976-05-17 01:46:54,1,-1.73333,11.6667,-2.75,0.311359,1,1,18245.3,21012.2,1641,0.80587196,4.1474171,305.47412,164.38036,15.4444,309.998,-21.4296,-3.49287,17.3554,18.6249
1976-05-17 01:48:15,1,-2.2,11.6,-3.03333,0.268742,1,1,21475.0,21396.2,1641,0.80588299,4.1472683,305.46252,164.38048,14.3056,311.334,-17.7548,-1.30548,18.8289,18.7943
1976-05-17 01:49:36,1,-2.28333,11.4,-3.56667,0.305959,1,1,15665.7,21271.1,1641,0.80588847,4.147193,305.44888,164.38052,16.204,312.827,-21.5091,0.0856185,16.0817,18.7393
1976-05-17 01:50:57,1,-2.4,11.3333,-3.5,0.268742,1,1,20274.6,21511.6,1641,0.80589396,4.1471186,305.43723,164.38058,15.2521,312.89,-16.9023,-1.08579,18.2951,18.8449
1976-05-17 01:52:18,1,-2.72,11.38,-3.34,0.263818,1,1,18221.6,20371.1,1641,0.80590492,4.1469698,305.42563,164.38069,15.0947,313.356,-21.7302,-1.50537,17.3441,18.3386
1976-05-17 01:53:39,1,-2.46667,11.4667,-3.3,0.260342,1,1,24509.4,21782.2,1641,0.80591041,4.1468945,305.41199,164.38074,14.1189,311.861,-18.5266,-0.859951,20.1152,18.9631
1976-05-17 01:55:00,1,-2.28,11.28,-3.34,0.285657,1,1,21293.9,21411.4,1641,0.80592144,4.1467457,305.40039,164.38086,16.5115,312.373,-20.1567,-1.9572,18.7493,18.801
1976-05-17 01:56:21,1,-1.8,11.2833,-3.71667,0.772082,1,1,18070.2,20046.8,1641,0.80592692,4.1466713,305.38678,164.38091,14.4036,312.03,-16.0903,0.156225,17.2719,18.192
1976-05-17 01:57:42,1,-2.32,11.38,-3.1,0.176635,1,1,20050.6,21183.4,1641,0.8059324,4.146596,305.37512,164.38097,15.9673,312.418,-19.9168,-0.204439,18.1937,18.7006
1976-05-17 01:59:03,1,-2.53333,11.4333,-3.3,0.38873,1,1,22219.7,22597.5,1641,0.80594337,4.1464472,305.36349,164.38107,15.399,312.906,-17.5603,-0.402852,19.1526,19.3147
1976-05-17 02:00:24,1,-2.08,11.32,-3.42,0.39598,1,1,20717.5,21136.1,1641,0.80594891,4.1463728,305.34988,164.38113,15.9684,312.808,-20.74,-0.517801,18.4938,18.6797
1976-05-17 02:01:45,1,-2.48333,11.3333,-3.36667,0.660177,1,1,25653.0,19836.5,1641,0.8059544,4.1462975,305.33823,164.38118,14.5752,309.478,-18.502,0.403093,20.5791,18.0963
1976-05-17 02:03:06,1,-1.9,11.3,-3.42,0.16,1,1,18937.8,20574.3,1641,0.80596536,4.1461487,305.3266,164.38129,14.6964,312.639,-22.0713,-0.0312991,17.6817,18.4298
1976-05-17 02:04:27,1,-2.36,11.42,-3.42,0.24,1,1,24016.2,20385.4,1641,0.80597085,4.1460743,305.31299,164.38135,15.1452,311.129,-19.3198,-0.423436,19.9118,18.345
1976-05-17 02:05:48,1,-1.68333,11.55,-3.23333,0.310018,1,1,17725.9,20150.1,1641,0.80597633,4.145999,305.30133,164.38139,14.6395,310.456,-21.7147,-2.75453,17.1066,18.2388
1976-05-17 02:07:09,1,-3.2,11.1,-4.3,0.0,1,1,19022.1,22244.8,1641,0.8059873,4.1458502,305.2897,164.3815,14.5438,315.955,-16.7969,5.14133,17.721,19.1634
1976-05-17 02:08:30,1,-2.93333,11.2333,-4.23333,0.258199,1,1,18359.8,20394.4,1641,0.80599278,4.1457758,305.27609,164.38156,14.6469,315.615,-22.2158,5.58808,17.4097,18.3491
1976-05-17 02:09:51,1,-2.95,11.25,-3.9,0.158114,1,1,22796.4,21866.0,1641,0.80599827,4.1457005,305.26443,164.38161,14.9952,313.984,-18.8656,4.36751,19.3995,18.9995
1976-05-17 02:11:12,1,-3.2,11.35,-3.5,0.180278,1,1,17171.9,20329.4,1641,0.80600923,4.1455517,305.25281,164.38171,14.6769,316.672,-21.4247,2.09983,16.8371,18.3198
1976-05-17 02:12:33,1,-3.66667,11.4,-3.36667,0.194365,1,1,18596.5,21247.5,1641,0.80601472,4.1454773,305.2392,164.38177,14.6741,317.253,-18.3583,2.17311,17.5216,18.7289
1976-05-17 02:13:54,1,-1.9,11.3,-4.38,0.16,1,1,17881.9,21037.4,1641,0.8060202,4.145402,305.22754,164.38182,14.9501,313.511,-20.4196,2.76027,17.1816,18.6361
1976-05-17 02:15:15,1,-1.78333,11.3333,-4.46667,0.269258,1,1,18917.9,21317.1,1641,0.80603123,4.1452532,305.21594,164.38194,14.6332,312.107,-16.8296,3.71932,17.6724,18.7595
1976-05-17 02:16:36,1,-2.51667,11.3667,-3.96667,0.292973,1,1,18370.4,20105.1,1641,0.80603671,4.1451788,305.2023,164.38199,14.616,313.091,-21.8608,4.47512,17.4147,18.2184
1976-05-17 02:17:57,1,-4.13333,11.1667,-3.33333,0.244949,1,1,21476.5,21871.4,1641,0.80604219,4.1451044,305.19064,164.38205,15.7896,319.13,-18.0884,1.69773,18.8295,19.0019
1976-05-17 02:19:18,1,-4.06667,11.1667,-3.53333,0.251661,1,1,18793.3,20301.6,1641,0.80605316,4.1449547,305.17905,164.38216,15.8074,319.716,-22.0418,1.67835,17.614,18.3073
1976-05-17 02:20:39,1,-3.86,11.0,-3.82,0.260768,1,1,20029.5,22327.9,1641,0.80605865,4.1448803,305.16541,164.3822,15.3426,318.727,-17.1522,3.31178,18.1842,19.1992
1976-05-17 02:22:00,1,-4.16667,10.9833,-4.0,0.332081,1,1,22202.2,21047.2,1641,0.80606961,4.1447306,305.15381,164.38231,16.1736,319.227,-20.6427,3.75789,19.145,18.6404
1976-05-17 02:23:21,1,-3.4,11.0333,-4.3,0.149071,1,1,21041.3,22307.9,1641,0.8060751,4.1446562,305.14215,164.38237,16.0352,317.042,-17.9239,3.85493,18.6378,19.1905
1976-05-17 02:24:42,1,-2.6,11.3,-4.3,0.282843,1,1,20143.4,21093.4,1641,0.80608058,4.1445818,305.12851,164.38242,15.212,313.148,-22.4625,4.58084,18.2358,18.6608
1976-05-17 02:26:03,1,-2.63333,11.2333,-4.36667,0.391578,1,1,17953.1,21736.4,1641,0.80609155,4.1444321,305.11691,164.38252,15.195,316.36,-15.8418,6.39537,17.2158,18.9431
1976-05-17 02:27:24,1,-1.86667,11.3833,-4.11667,0.297209,1,1,17546.0,20452.7,1641,0.80609703,4.1443577,305.1033,164.38258,15.1474,313.273,-20.9207,3.07914,17.0195,18.3753
1976-05-17 02:28:45,1,-2.52,11.34,-4.14,0.344093,1,1,19681.9,21925.0,1641,0.80610251,4.1442833,305.09161,164.38263,14.4162,313.692,-17.3987,2.85704,18.0257,19.0251
1976-05-17 02:30:06,1,-2.85,11.2833,-3.9,0.117851,1,1,18755.8,20557.7,1641,0.80611354,4.1441345,305.08002,164.38275,15.2703,315.046,-22.0324,3.68562,17.5965,18.4224
1976-05-17 02:31:27,1,-2.76667,11.2333,-4.1,0.260342,1,1,20056.5,21401.7,1641,0.80611902,4.1440592,305.06641,164.3828,14.4449,315.498,-18.147,4.83763,18.1964,18.7967
1976-05-17 02:32:48,1,-2.53333,11.3,-3.83333,0.307318,1,1,16806.5,19921.7,1641,0.80612451,4.1439848,305.05475,164.38286,14.6955,314.871,-22.1817,2.59345,16.657,18.1352
1976-05-17 02:34:09,1,-2.33333,11.2333,-4.23333,0.244949,1,1,26991.3,21429.3,1641,0.80613548,4.143836,305.04312,164.38297,14.3168,313.3,-19.2925,4.04807,21.1091,18.8088
1976-05-17 02:35:30,1,-2.66,11.18,-4.3,0.252982,1,1,21212.5,19795.7,1641,0.80614096,4.1437607,305.02951,164.38301,14.6079,315.313,-21.4553,4.82348,18.7135,18.0777
1976-05-17 02:36:51,1,-3.13333,11.1333,-4.43333,0.251661,1,1,19984.0,22867.8,1641,0.80614644,4.1436863,305.01785,164.38307,14.5973,317.03,-18.5456,6.83336,18.1635,19.4299
1976-05-17 02:38:12,1,-2.76,11.22,-4.3,0.178885,1,1,18482.4,20117.3,1641,0.80615741,4.1435375,305.00623,164.38318,14.9286,315.662,-23.3092,5.83548,17.4677,18.224
1976-05-17 02:39:33,1,-2.86667,11.2667,-4.3,0.166667,1,1,25303.8,21194.3,1641,0.80616289,4.1434622,304.99261,164.38322,13.9359,315.061,-20.6483,6.01659,20.4386,18.7054
1976-05-17 02:40:54,1,-2.68,11.06,-4.38,0.271293,1,1,17851.7,19596.9,1641,0.80616838,4.1433878,304.98096,164.38329,14.7725,314.833,-23.0461,7.0044,17.1671,17.9867
1976-05-17 02:42:15,1,-2.5,11.18,-4.54,0.352136,1,1,23480.1,21079.8,1641,0.80617934,4.143239,304.96933,164.38339,14.236,312.374,-19.0043,6.54378,19.6883,18.6548
1976-05-17 02:43:36,1,-2.64,10.98,-4.3,0.178885,1,1,22004.1,20913.4,1641,0.80618483,4.1431637,304.95572,164.38344,15.2557,315.23,-22.7465,6.26592,19.0594,18.581
1976-05-17 02:44:57,1,-2.98333,10.7333,-4.63333,0.214087,1,1,19624.7,22864.1,1641,0.80619037,4.1430893,304.94406,164.3835,15.1905,315.989,-16.9088,7.70794,17.9994,19.4283
1976-05-17 02:46:18,1,-2.74,10.74,-4.78,0.300666,1,1,22621.9,22751.0,1641,0.80620134,4.1429405,304.93243,164.38361,16.4487,315.093,-19.6735,5.97507,19.3251,19.3802
1976-05-17 02:47:39,1,-2.5,10.6,-4.5,0.2,1,1,22117.4,23348.8,1641,0.80620682,4.1428661,304.91882,164.38367,16.519,314.031,-16.6357,6.00981,19.1084,19.6332
1976-05-17 02:49:00,1,-2.1,10.7833,-3.96667,0.153659,1,1,21249.4,22564.9,1641,0.80621779,4.1427164,304.90723,164.38377,16.7203,314.102,-20.5904,4.51201,18.7297,19.3008
1976-05-17 02:50:21,1,-1.78,10.88,-3.66,0.256125,1,1,18988.0,21313.0,1641,0.80622327,4.142642,304.89554,164.38382,16.1842,312.601,-16.2742,3.73262,17.7051,18.7577
1976-05-17 02:51:42,1,-2.43333,10.6167,-4.43333,0.243242,1,1,20805.5,23299.3,1641,0.80622876,4.1425676,304.88193,164.38388,17.0742,314.03,-20.4134,5.25458,18.533,19.6123
1976-05-17 02:53:03,1,-2.58333,10.9,-4.03333,0.23863,1,1,24011.9,24339.2,1641,0.80623972,4.1424179,304.87033,164.38399,17.1942,314.917,-17.087,4.38967,19.91,20.0452
1976-05-17 02:54:24,1,-3.16667,11.1667,-3.76667,0.251661,1,1,19990.3,22580.7,1641,0.80624521,4.1423435,304.85669,164.38403,15.5567,316.503,-21.882,3.93918,18.1663,19.3075
1976-05-17 02:55:45,1,-3.01667,10.3333,-5.13333,0.229129,1,1,20063.0,20736.4,1641,0.80625069,4.1422691,304.84503,164.38409,16.5858,315.196,-14.1444,13.6607,18.1994,18.5022
1976-05-17 02:57:06,1,-2.76667,10.9833,-3.43333,0.287228,1,1,20900.6,22245.1,1641,0.80626166,4.1421194,304.83344,164.3842,16.1242,314.142,-21.2687,2.41614,18.5754,19.1635
1976-05-17 02:58:27,1,-4.5,10.8667,-2.81667,0.766123,1,1,22216.1,22933.5,1641,0.80626714,4.142045,304.81979,164.38425,15.1941,325.046,-17.9953,-5.30232,19.151,19.4578
1976-05-17 02:59:48,1,-2.05,10.7333,-4.5,0.240947,1,1,18638.4,20439.6,1641,0.80627269,4.1419706,304.80814,164.38431,15.0081,314.677,-22.0749,6.41413,17.5413,18.3694
1976-05-17 03:01:09,1,-2.1,10.7,-4.46,0.195959,1,1,25594.9,22567.0,1641,0.80628359,4.1418209,304.79654,164.38441,15.9163,313.354,-19.2703,5.66649,20.5558,19.3017
1976-05-17 03:02:30,1,-1.73333,10.9,-4.43333,0.194365,1,1,18555.4,20828.7,1641,0.80628908,4.1417465,304.78293,164.38448,15.0736,313.598,-22.447,6.14383,17.5022,18.5434
1976-05-17 03:03:51,1,-1.78333,10.9,-4.63333,0.153659,1,1,25345.1,21154.8,1641,0.80629456,4.1416721,304.77124,164.38452,14.5025,312.998,-19.8993,6.70909,20.4553,18.688
1976-05-17 03:05:12,1,-1.38333,10.7667,-4.36667,0.314907,1,1,17252.6,20191.3,1641,0.80630553,4.1415224,304.75964,164.38463,16.2868,310.774,-22.0684,5.67476,16.8766,18.2574
1976-05-17 03:06:33,1,-1.23333,10.7667,-4.56667,0.251661,1,1,25173.5,20893.6,1641,0.80631101,4.141448,304.74603,164.38469,14.8082,311.339,-20.8271,6.26515,20.3859,18.5722
1976-05-17 03:07:54,1,-1.52,11.02,-4.38,0.238328,1,1,20641.4,20797.2,1641,0.80631649,4.1413736,304.73434,164.38474,14.8761,312.746,-20.9524,5.96515,18.4598,18.5294
1976-05-17 03:09:15,1,-1.88333,11.2333,-4.3,0.277389,1,1,27789.1,21448.5,1641,0.80632746,4.1412249,304.72275,164.38484,14.2318,312.683,-20.3137,5.66228,21.4188,18.8173
1976-05-17 03:11:57,1,-2.26667,11.0333,-4.63333,0.223607,1,1,26295.5,21535.3,1641,0.80633843,4.1410751,304.69745,164.38495,13.7946,311.058,-20.9389,7.21155,20.8352,18.8553
1976-05-17 03:14:39,1,-1.85,10.5333,-4.96667,0.346811,1,1,25977.8,20280.2,1641,0.80635488,4.140851,304.67224,164.38512,14.6498,309.816,-19.17,8.76185,20.709,18.2976
1976-05-17 03:16:00,1,-1.68,10.66,-4.7,0.219089,1,1,20081.6,22312.7,1641,0.80636585,4.1407022,304.66061,164.38522,14.2696,310.637,-22.619,9.08486,18.2078,19.1926
1976-05-17 03:17:21,1,-1.63333,10.5667,-4.7,0.166667,1,1,27432.8,21396.5,1641,0.80637133,4.1406279,304.64896,164.38527,14.9277,309.749,-21.3219,9.39963,21.281,18.7945
1976-05-17 03:18:42,1,-1.58,10.98,-4.3,0.176635,1,1,21529.9,21485.9,1641,0.80637681,4.1405535,304.63535,164.38533,15.1306,310.512,-21.6511,8.43008,18.8529,18.8337
1976-05-17 03:20:03,1,-1.86667,10.8333,-4.43333,0.270801,1,1,27410.4,21436.1,1641,0.80638778,4.1404037,304.62372,164.38544,13.954,309.22,-22.5595,9.05854,21.2723,18.8118
1976-05-17 03:21:24,1,-1.86,10.86,-4.7,0.144222,1,1,18836.2,21200.1,1641,0.80639327,4.1403294,304.61011,164.38548,14.8028,311.014,-22.2126,9.09932,17.6341,18.708
1976-05-17 03:22:45,-1,nan,nan,nan,nan,1,4,nan,nan,1641,0.80639875,4.140255,304.59845,164.38554,nan,nan,nan,nan,nan,nan
1976-05-17 03:24:06,1,-1.8,10.9,-4.7,0.0,1,1,21615.3,23744.8,1641,0.80640972,4.1401052,304.58682,164.38565,15.1703,308.099,-21.1028,11.74,18.8903,19.799
1976-05-17 03:25:27,1,-1.34,9.34,-5.1,0.291204,1,1,30240.6,25560.0,1641,0.8064152,4.1400309,304.57321,164.3857,14.8397,308.568,-12.6578,9.69005,22.3436,20.5418
1976-05-17 03:26:48,1,-0.4,9.74,-6.56,0.246577,1,1,29047.2,28790.7,1641,0.80642068,4.1399565,304.56155,164.38576,14.4362,304.892,-14.7682,17.0023,21.8983,21.8014
1976-05-17 03:28:09,1,0.12,8.2,-6.62,0.345254,1,1,29955.5,26324.9,1641,0.80643165,4.1398067,304.54993,164.38586,16.1644,304.251,-8.76553,13.4041,22.238,20.8469
1976-05-17 03:29:30,1,-0.1,8.36,-6.54,0.34176,1,1,36724.9,26021.6,1641,0.80643713,4.1397324,304.53632,164.38591,16.397,307.086,-5.2771,15.0516,24.6229,20.7264
1976-05-17 03:30:51,1,-0.24,8.32,-6.14,0.637495,1,1,36672.9,31956.0,1641,0.80644262,4.139658,304.52466,164.38597,16.8686,308.282,-6.6772,14.8744,24.6054,22.9686
1976-05-17 03:32:12,1,-0.2,8.41667,-5.7,0.561001,1,1,41897.9,32037.0,1641,0.80645353,4.1395092,304.51303,164.38608,16.837,307.073,-7.31647,9.37168,26.2999,22.9977
1976-05-17 03:33:33,1,-0.14,8.02,-5.02,0.597997,1,1,37255.2,36269.8,1641,0.80645901,4.1394339,304.49942,164.38614,18.8843,305.743,-9.0557,11.4168,24.8,24.4698
1976-05-17 03:34:54,1,-1.16667,8.43333,-5.5,0.166667,1,1,42639.2,32097.8,1641,0.80646449,4.1393595,304.48776,164.38618,17.3357,308.545,-8.37734,9.25125,26.5316,23.0195
1976-05-17 03:36:15,1,-1.13333,8.38333,-5.16667,0.243242,1,1,32063.9,32471.1,1641,0.80647546,4.1392107,304.47614,164.38629,17.5722,308.963,-9.02173,11.8802,23.0073,23.153
1976-05-17 03:37:36,1,-1.86667,8.06667,-6.0,0.278887,1,1,40080.2,34429.5,1641,0.80648094,4.1391354,304.46252,164.38635,18.476,312.325,-6.74405,12.5921,25.7231,23.8409
1976-05-17 03:38:57,1,-1.81667,8.08333,-5.93333,0.297209,1,1,36198.0,33636.7,1641,0.80648643,4.139061,304.45087,164.3864,17.3894,310.305,-8.81114,11.0518,24.4456,23.5648
1976-05-17 03:40:18,1,-0.96,8.08,-4.82,0.611228,1,1,42071.7,34701.8,1641,0.8064974,4.1389122,304.43924,164.38651,21.2221,314.117,-12.7167,11.6625,26.3544,23.935
1976-05-17 03:41:39,1,-0.74,7.82,-5.34,0.233238,1,1,34209.4,31036.8,1641,0.80650288,4.1388378,304.42563,164.38657,18.9629,308.955,-12.9152,11.5439,23.7646,22.6358
1976-05-17 03:43:00,1,-0.68,7.76,-5.8,0.289828,1,1,38567.5,36707.1,1641,0.80651385,4.1386881,304.41403,164.38667,20.137,306.554,-12.2907,12.0557,25.233,24.6169
1976-05-17 03:44:21,1,-0.56,8.14,-5.58,0.257682,1,1,37216.2,33295.7,1641,0.80651933,4.1386137,304.40234,164.38672,18.5471,306.229,-11.3392,11.6947,24.787,23.4451
1976-05-17 03:45:42,1,-0.333333,7.75,-6.16667,0.327024,1,1,41865.4,33973.4,1641,0.80652481,4.1385393,304.38873,164.38678,17.5947,304.559,-8.08298,12.8117,26.2897,23.6825
1976-05-17 03:47:03,1,-0.04,7.86,-6.3,0.20199,1,1,33874.1,32664.6,1641,0.80653578,4.1383896,304.37714,164.38689,16.7724,304.1,-8.47355,12.9144,23.6478,23.2218
1976-05-17 03:48:24,1,0.4,7.86,-6.86,0.20199,1,1,40599.7,29222.9,1641,0.80654126,4.1383152,304.36545,164.38693,16.0049,302.144,-9.36968,13.389,25.8892,21.9644
1976-05-17 03:49:45,1,-0.3,7.6,-5.36667,0.298142,1,1,32429.9,31170.5,1641,0.80654675,4.1382408,304.35184,164.38699,18.6365,304.307,-12.1101,10.8955,23.1382,22.6845
1976-05-17 03:51:06,1,-0.96,8.4,-4.14,0.642495,1,1,34180.8,32394.3,1641,0.80655771,4.138092,304.34024,164.3871,19.3817,305.613,-13.2455,10.0684,23.7547,23.1256
1976-05-17 03:52:27,1,-0.58,7.96,-5.42,0.263818,1,1,30550.8,31826.9,1641,0.8065632,4.1380167,304.3266,164.38715,18.5745,302.641,-10.3733,13.7811,22.4579,22.9221
1976-05-17 03:53:48,1,-0.48,8.06,-4.94,0.241661,1,1,37072.3,35709.7,1641,0.80656868,4.1379423,304.31494,164.38721,18.4433,303.155,-11.2924,10.455,24.739,24.2801
1976-05-17 03:55:09,1,-0.6,7.16,-6.06,0.876812,1,1,31748.9,35686.6,1641,0.80657965,4.1377935,304.30334,164.38731,18.2053,306.306,-9.42888,12.3362,22.894,24.2723
1976-05-17 03:56:30,1,-0.366667,7.56667,-5.88333,0.170783,1,1,35391.6,34333.5,1641,0.80658513,4.1377182,304.2897,164.38736,18.4069,304.348,-10.5655,10.9927,24.1718,23.8077
1976-05-17 03:57:51,1,-0.28,7.7,-5.66,0.389872,1,1,28360.5,32700.9,1641,0.80659062,4.1376438,304.27805,164.38742,18.1994,303.038,-9.04584,12.839,21.6379,23.2347
1976-05-17 03:59:12,1,-0.3,6.66667,-6.96667,0.24037,1,1,33451.3,34852.9,1641,0.80660158,4.137495,304.26645,164.38753,18.542,304.022,-7.10642,16.3402,23.4998,23.9871
1976-05-17 04:08:20,-1,nan,nan,nan,nan,1,3,nan,nan,1641,0.80665088,4.1368237,304.18292,164.388,nan,301.937,-6.69734,15.9953,nan,nan
1976-05-17 04:13:44,1,0.15,8.0,-5.9,0.269258,1,1,38214.7,34479.8,1641,0.80667824,4.1364508,304.13242,164.38826,18.8795,301.783,-10.7646,14.9401,25.1173,23.8583
1976-05-17 04:19:08,1,-0.1,8.1,-5.5,0.326599,1,1,34023.5,36105.5,1641,0.80671108,4.1360035,304.08389,164.38858,19.7322,305.502,-11.0382,11.7535,23.6999,24.4143
1976-05-17 04:19:28,1,-0.1,8.1,-5.5,1.38778e-17,1,1,33005.1,34556.4,1641,0.80671108,4.1360035,304.07999,164.38858,19.1457,304.982,-12.4657,12.5579,23.3426,23.8848
1976-05-17 04:24:52,1,-0.766667,7.76667,-6.16667,0.282843,1,1,32077.3,31249.9,1641,0.8067385,4.1356306,304.03143,164.38884,18.6964,306.473,-10.6358,14.2552,23.0121,22.7134
1976-05-17 04:30:16,1,-3.1,4.5,-8.8,0.0,1,1,30236.7,34616.2,1641,0.80677134,4.1351833,303.98291,164.38916,18.6104,313.769,-3.26709,22.2856,22.3422,23.9055
1976-05-17 04:35:40,1,-2.46667,6.76667,-8.16667,0.258199,1,1,29203.8,32559.1,1641,0.8067987,4.1348104,303.9324,164.38942,18.2491,311.396,-8.0517,19.604,21.9572,23.1843
1976-05-17 04:41:04,1,-1.56667,7.26667,-7.0,0.380058,1,1,36617.1,33870.7,1641,0.8068316,4.1343622,303.88388,164.38974,19.7748,311.672,-10.22,17.875,24.5867,23.6467
1976-05-17 04:46:28,1,-1.03333,7.66667,-6.66667,0.2,1,1,33081.5,35046.0,1641,0.80685896,4.1339893,303.83337,164.39,18.6398,308.324,-11.5333,18.4383,23.3696,24.0534
1976-05-17 04:51:52,1,-1.2,7.6,-6.2,0.0,1,1,33821.0,38248.9,1641,0.80688637,4.1336164,303.78479,164.39026,18.8456,307.891,-13.2358,13.7762,23.6293,25.1285
1976-05-17 04:57:16,1,-0.633333,6.8,-6.86667,0.681502,1,1,30680.7,33317.1,1641,0.80691922,4.1331692,303.7363,164.39058,19.363,304.729,-11.7529,19.7783,22.5056,23.4526
1976-05-17 05:02:40,1,-1.6,7.73333,-5.93333,0.352767,1,1,37408.7,36420.6,1641,0.80694658,4.1327963,303.68576,164.39084,18.8715,311.157,-13.9255,14.0621,24.851,24.5206
1976-05-17 05:08:04,1,1.5,9.8,-2.53333,0.188562,1,1,34240.8,27577.5,1641,0.80697942,4.132349,303.63727,164.39116,14.8207,302.0,-14.1046,1.07714,23.7755,21.3371
1976-05-17 05:13:28,1,1.3,9.5,-2.93333,0.329983,1,1,34680.0,29899.3,1641,0.80700678,4.1319761,303.58673,164.39142,15.8582,301.17,-14.0248,3.07854,23.9275,22.2172
1976-05-17 05:18:52,1,1.3,9.2,-3.0,0.2,1,1,38905.4,30898.5,1641,0.80703413,4.1316032,303.53818,164.39168,16.5339,300.397,-15.7262,4.3788,25.3433,22.5854
1976-05-17 05:24:16,1,1.36667,8.93333,-3.33333,0.270801,1,1,42154.6,28123.4,1641,0.80706692,4.1311569,303.48965,164.392,15.8112,301.057,-10.8317,0.31855,26.3803,21.5472
1976-05-17 05:29:40,1,1.13333,8.83333,-3.73333,0.305505,1,1,36184.3,29734.2,1641,0.80709428,4.130784,303.43915,164.39226,17.134,304.217,-12.4693,7.35199,24.4409,22.1557
1976-05-17 05:33:32,-1,nan,nan,nan,nan,1,4,nan,nan,1641,0.80711615,4.1304855,303.40421,164.39247,nan,nan,nan,nan,nan,nan
1976-05-17 05:35:04,1,-2.0,5.25,-7.9,0.756637,1,1,40905.0,37163.0,1641,0.80712712,4.1303368,303.39063,164.39258,19.93,312.873,-3.19388,19.0079,25.9864,24.7693
1976-05-17 05:54:57,-1,nan,nan,nan,nan,1,4,nan,nan,1642,0.80724084,4.2441378,303.1926,164.37814,nan,nan,nan,nan,nan,nan
1976-05-17 06:59:56,-1,nan,nan,nan,nan,1,3,nan,nan,1641,0.80758637,4.1240768,302.61569,164.39693,nan,302.63,-22.2031,9.2832,nan,nan
1976-05-17 07:21:21,-1,nan,nan,nan,nan,1,3,nan,nan,1642,0.80771303,4.237608,302.40411,164.38263,nan,302.625,-22.2068,9.2832,nan,nan